TimeEST,TemperatureF,Dew PointF,Humidity,Sea Level PressureIn,VisibilityMPH,Wind Direction,Wind SpeedMPH,Gust SpeedMPH,PrecipitationIn,Events,Conditions,WindDirDegrees,DateUTC
12:14 AM,29.1,21.2,72,30.26,10.0,SSE,5.8,-,N/A,,Clear,150,2012-12-06 05:14:00
12:35 AM,29.7,21.6,72,30.26,10.0,SSE,6.9,-,N/A,,Clear,160,2012-12-06 05:35:00
12:54 AM,29.8,21.7,72,30.26,10.0,SSE,6.9,-,N/A,,Clear,160,2012-12-06 05:54:00
1:14 AM,30.2,21.7,71,30.25,10.0,SSE,6.9,-,N/A,,Clear,160,2012-12-06 06:14:00
1:35 AM,30.0,21.6,71,30.25,10.0,SSE,6.9,-,N/A,,Clear,160,2012-12-06 06:35:00
1:54 AM,30.0,21.6,71,30.24,10.0,SSE,5.8,-,N/A,,Clear,160,2012-12-06 06:54:00
2:15 AM,29.8,21.4,71,30.23,10.0,SSE,6.9,-,N/A,,Clear,150,2012-12-06 07:15:00
2:34 AM,29.7,21.6,72,30.24,10.0,SSE,5.8,-,N/A,,Clear,160,2012-12-06 07:34:00
2:55 AM,29.8,21.6,71,30.24,10.0,SSE,5.8,-,N/A,,Clear,160,2012-12-06 07:55:00
3:14 AM,29.8,21.7,72,30.24,10.0,SSE,4.6,-,N/A,,Clear,150,2012-12-06 08:14:00
3:34 AM,29.8,21.7,72,30.24,10.0,SSE,4.6,-,N/A,,Clear,150,2012-12-06 08:34:00
3:54 AM,29.8,21.9,72,30.22,10.0,SSE,5.8,-,N/A,,Clear,150,2012-12-06 08:54:00
4:14 AM,29.8,21.9,72,30.22,10.0,SSE,4.6,-,N/A,,Clear,160,2012-12-06 09:14:00
4:35 AM,29.8,21.7,72,30.21,10.0,SSE,5.8,-,N/A,,Clear,160,2012-12-06 09:35:00
4:54 AM,29.7,21.7,72,30.20,10.0,SSE,6.9,-,N/A,,Clear,150,2012-12-06 09:54:00
5:14 AM,29.7,21.7,72,30.20,10.0,SSE,6.9,-,N/A,,Clear,160,2012-12-06 10:14:00
5:34 AM,29.5,21.6,72,30.19,10.0,SSE,6.9,-,N/A,,Clear,160,2012-12-06 10:34:00
5:54 AM,29.7,21.4,71,30.18,10.0,SSE,6.9,-,N/A,,Scattered Clouds,150,2012-12-06 10:54:00
6:15 AM,30.0,21.7,71,30.17,10.0,SSE,8.1,-,N/A,,Scattered Clouds,160,2012-12-06 11:15:00
6:34 AM,30.2,21.9,71,30.16,10.0,SSE,10.4,-,N/A,,Mostly Cloudy,160,2012-12-06 11:34:00
6:54 AM,30.2,21.9,71,30.16,10.0,South,10.4,-,N/A,,Overcast,170,2012-12-06 11:54:00
7:15 AM,30.7,22.1,70,30.16,10.0,South,8.1,16.1,N/A,,Overcast,170,2012-12-06 12:15:00
7:34 AM,30.7,22.3,71,30.15,10.0,SSE,10.4,-,N/A,,Overcast,160,2012-12-06 12:34:00
7:54 AM,30.7,22.3,71,30.15,10.0,South,8.1,-,N/A,,Overcast,170,2012-12-06 12:54:00
8:15 AM,30.7,22.1,70,30.14,10.0,South,8.1,-,N/A,,Overcast,170,2012-12-06 13:15:00
8:34 AM,30.9,22.3,70,30.14,10.0,SSE,9.2,-,N/A,,Overcast,160,2012-12-06 13:34:00
8:54 AM,31.1,22.6,71,30.13,10.0,SSE,10.4,17.3,N/A,,Mostly Cloudy,160,2012-12-06 13:54:00
9:15 AM,31.1,22.8,71,30.13,10.0,South,8.1,-,N/A,,Scattered Clouds,170,2012-12-06 14:15:00
9:34 AM,31.6,23.0,70,30.12,10.0,South,9.2,-,N/A,,Mostly Cloudy,170,2012-12-06 14:34:00
10:06 AM,32.0,23.0,69,30.12,10.0,South,9.2,-,N/A,,Overcast,170,2012-12-06 15:06:00
10:34 AM,32.0,23.0,69,30.11,10.0,South,10.4,-,N/A,,Mostly Cloudy,170,2012-12-06 15:34:00
10:55 AM,32.9,23.2,67,30.10,10.0,South,6.9,16.1,N/A,,Scattered Clouds,180,2012-12-06 15:55:00
11:14 AM,33.1,23.2,67,30.09,10.0,South,9.2,-,N/A,,Scattered Clouds,180,2012-12-06 16:14:00
11:34 AM,33.8,23.2,65,30.08,10.0,South,10.4,-,N/A,,Scattered Clouds,180,2012-12-06 16:34:00
11:55 AM,34.5,23.4,64,30.06,10.0,South,11.5,16.1,N/A,,Clear,180,2012-12-06 16:55:00
12:14 PM,34.7,23.4,63,30.05,10.0,South,10.4,-,N/A,,Scattered Clouds,170,2012-12-06 17:14:00
12:35 PM,34.9,23.4,63,30.03,10.0,South,9.2,-,N/A,,Overcast,170,2012-12-06 17:35:00
12:54 PM,35.2,23.5,62,30.01,10.0,South,10.4,-,N/A,,Overcast,170,2012-12-06 17:54:00
1:14 PM,35.2,23.5,62,30.01,10.0,South,10.4,17.3,N/A,,Overcast,180,2012-12-06 18:14:00
1:35 PM,35.8,23.9,62,30.00,10.0,South,8.1,-,N/A,,Overcast,180,2012-12-06 18:35:00
1:54 PM,36.1,24.1,62,29.99,10.0,South,8.1,-,N/A,,Overcast,170,2012-12-06 18:54:00
2:15 PM,36.5,24.3,61,29.97,10.0,South,9.2,-,N/A,,Overcast,170,2012-12-06 19:15:00
2:34 PM,36.7,24.3,61,29.96,10.0,South,10.4,-,N/A,,Mostly Cloudy,180,2012-12-06 19:34:00
2:54 PM,36.9,24.6,61,29.94,10.0,South,11.5,16.1,N/A,,Mostly Cloudy,170,2012-12-06 19:54:00
3:15 PM,36.9,25.0,62,29.94,10.0,South,8.1,-,N/A,,Overcast,180,2012-12-06 20:15:00
3:34 PM,37.4,25.2,61,29.95,10.0,SSW,4.6,-,N/A,,Overcast,200,2012-12-06 20:34:00
3:55 PM,37.4,25.5,62,29.95,10.0,South,5.8,-,N/A,,Mostly Cloudy,190,2012-12-06 20:55:00
4:14 PM,37.4,25.5,62,29.94,10.0,South,8.1,-,N/A,,Overcast,170,2012-12-06 21:14:00
4:34 PM,37.4,25.7,63,29.93,10.0,South,5.8,-,N/A,,Overcast,170,2012-12-06 21:34:00
4:55 PM,37.4,25.7,63,29.92,10.0,South,8.1,-,N/A,,Overcast,170,2012-12-06 21:55:00
5:14 PM,37.4,25.7,63,29.91,10.0,SSE,10.4,-,N/A,,Mostly Cloudy,150,2012-12-06 22:14:00
5:35 PM,37.0,25.9,64,29.90,10.0,South,9.2,-,N/A,,Overcast,170,2012-12-06 22:35:00
5:54 PM,37.4,26.2,64,29.90,10.0,South,8.1,-,N/A,,Overcast,170,2012-12-06 22:54:00
6:14 PM,37.4,26.2,64,29.90,10.0,South,8.1,-,N/A,,Overcast,170,2012-12-06 23:14:00
6:35 PM,37.6,26.4,64,29.91,10.0,South,6.9,-,N/A,,Overcast,190,2012-12-06 23:35:00
6:54 PM,37.6,26.6,65,29.91,10.0,South,5.8,-,N/A,,Overcast,180,2012-12-06 23:54:00
7:15 PM,37.8,26.6,64,29.91,10.0,South,6.9,-,N/A,,Overcast,170,2012-12-07 00:15:00
7:34 PM,37.9,26.8,64,29.91,10.0,South,8.1,-,N/A,,Overcast,170,2012-12-07 00:34:00
8:15 PM,37.8,27.3,66,29.91,10.0,South,6.9,-,N/A,,Overcast,190,2012-12-07 01:15:00
8:34 PM,37.6,27.3,66,29.90,10.0,South,6.9,-,N/A,,Overcast,180,2012-12-07 01:34:00
8:55 PM,37.8,27.5,67,29.89,10.0,South,5.8,-,N/A,,Overcast,190,2012-12-07 01:55:00
9:35 PM,37.6,27.9,68,29.89,10.0,South,6.9,-,N/A,,Overcast,180,2012-12-07 02:35:00
9:55 PM,37.6,28.2,69,29.88,10.0,South,8.1,-,N/A,,Overcast,180,2012-12-07 02:55:00
10:14 PM,37.6,28.6,70,29.89,10.0,SSW,4.6,-,N/A,,Overcast,200,2012-12-07 03:14:00
10:35 PM,37.4,28.9,71,29.89,10.0,SSW,3.5,-,N/A,,Mostly Cloudy,210,2012-12-07 03:35:00
10:54 PM,37.0,28.8,72,29.89,10.0,South,3.5,-,N/A,,Scattered Clouds,190,2012-12-07 03:54:00
11:15 PM,36.7,29.3,75,29.88,10.0,South,3.5,-,N/A,,Mostly Cloudy,190,2012-12-07 04:15:00
11:34 PM,36.9,29.8,76,29.88,10.0,South,4.6,-,N/A,,Overcast,180,2012-12-07 04:34:00
11:54 PM,37.6,30.2,75,29.88,10.0,South,4.6,-,N/A,,Overcast,180,2012-12-07 04:54:00